| time (UTC) | temp F | wind direction | speed MPH | gust MPH | rain 1hr in | rain 24hr in | rain mn in | humidity % | barometer mb |
| 20260507103544 | 71 | 330 | 1.0 | 6.0 | 0.00 | 0.05 | 0.00 | 62 | 1011.9 |
| 20260507103044 | 71 | 327 | 4.0 | 11.0 | 0.00 | 0.05 | 0.00 | 63 | 1011.9 |
| 20260507102544 | 71 | 281 | 1.0 | 4.0 | 0.00 | 0.05 | 0.00 | 64 | 1011.9 |
| 20260507102044 | 70 | 301 | 0.0 | 9.0 | 0.00 | 0.05 | 0.00 | 64 | 1012.0 |
| 20260507101544 | 70 | 317 | 8.0 | 8.0 | 0.00 | 0.05 | 0.00 | 64 | 1012.1 |
| 20260507101044 | 70 | 312 | 4.0 | 9.0 | 0.00 | 0.05 | 0.00 | 63 | 1012.1 |
| 20260507100544 | 70 | 315 | 4.0 | 9.0 | 0.00 | 0.05 | 0.00 | 64 | 1012.2 |
| 20260507100044 | 70 | 323 | 3.0 | 8.0 | 0.00 | 0.05 | 0.00 | 65 | 1012.0 |
| 20260507095547 | 70 | 112 | 3.0 | 5.0 | 0.00 | 0.05 | 0.00 | 64 | 1012.0 |
| 20260507095047 | 70 | 319 | 6.0 | 11.0 | 0.00 | 0.05 | 0.00 | 63 | 1012.0 |
| 20260507094544 | 70 | 314 | 3.0 | 5.0 | 0.00 | 0.05 | 0.00 | 64 | 1012.2 |
| 20260507094044 | 69 | 322 | 1.0 | 6.0 | 0.00 | 0.05 | 0.00 | 65 | 1012.2 |
| 20260507093547 | 70 | 22 | 2.0 | 8.0 | 0.00 | 0.05 | 0.00 | 64 | 1012.2 |
| 20260507093044 | 70 | 80 | 8.0 | 8.0 | 0.00 | 0.05 | 0.00 | 63 | 1012.2 |
| 20260507092547 | 70 | 38 | 3.0 | 3.0 | 0.00 | 0.05 | 0.00 | 66 | 1012.2 |
| 20260507092048 | 69 | 40 | 0.0 | 4.0 | 0.00 | 0.05 | 0.00 | 67 | 1012.3 |
| 20260507091544 | 68 | 111 | 2.0 | 4.0 | 0.00 | 0.05 | 0.00 | 67 | 1012.2 |
| 20260507091044 | 68 | 344 | 2.0 | 5.0 | 0.00 | 0.05 | 0.00 | 67 | 1012.2 |
| 20260507090544 | 68 | 349 | 2.0 | 5.0 | 0.00 | 0.05 | 0.00 | 68 | 1012.2 |
| 20260507090044 | 68 | 321 | 0.0 | 6.0 | 0.00 | 0.05 | 0.00 | 68 | 1012.1 |
| 20260507085544 | 67 | 39 | 1.0 | 4.0 | 0.00 | 0.05 | 0.00 | 69 | 1012.1 |
| 20260507085044 | 67 | 37 | 4.0 | 9.0 | 0.00 | 0.05 | 0.00 | 68 | 1012.0 |
| 20260507084544 | 67 | 311 | 4.0 | 9.0 | 0.00 | 0.05 | 0.00 | 69 | 1012.0 |
| 20260507084044 | 67 | 320 | 5.0 | 6.0 | 0.00 | 0.05 | 0.00 | 69 | 1012.1 |
| 20260507083544 | 68 | 329 | 5.0 | 6.0 | 0.00 | 0.05 | 0.00 | 68 | 1012.2 |
| 20260507083044 | 68 | 309 | 1.0 | 3.0 | 0.00 | 0.05 | 0.00 | 69 | 1012.3 |
| 20260507082544 | 68 | 308 | 1.0 | 5.0 | 0.00 | 0.05 | 0.00 | 69 | 1012.2 |
| 20260507082044 | 67 | 304 | 0.0 | 6.0 | 0.00 | 0.05 | 0.00 | 70 | 1012.1 |
| 20260507081544 | 67 | 355 | 1.0 | 6.0 | 0.00 | 0.05 | 0.00 | 68 | 1012.2 |
| 20260507081047 | 68 | 271 | 3.0 | 3.0 | 0.00 | 0.05 | 0.00 | 70 | 1012.2 |
| 20260507080547 | 67 | 190 | 2.0 | 3.0 | 0.00 | 0.05 | 0.00 | 71 | 1012.1 |
| 20260507080044 | 67 | 194 | 1.0 | 6.0 | 0.00 | 0.05 | 0.00 | 71 | 1012.2 |
| 20260507075544 | 66 | 153 | 2.0 | 5.0 | 0.00 | 0.05 | 0.00 | 71 | 1012.2 |
| 20260507075044 | 66 | 152 | 3.0 | 4.0 | 0.00 | 0.05 | 0.00 | 71 | 1012.2 |
| 20260507074544 | 66 | 146 | 1.0 | 7.0 | 0.00 | 0.05 | 0.00 | 70 | 1012.2 |
| 20260507074044 | 66 | 212 | 0.0 | 2.0 | 0.00 | 0.05 | 0.00 | 72 | 1012.2 |
| 20260507073544 | 66 | 213 | 0.0 | 4.0 | 0.00 | 0.05 | 0.00 | 71 | 1012.3 |
| 20260507073044 | 66 | 188 | 2.0 | 3.0 | 0.00 | 0.05 | 0.00 | 72 | 1012.3 |
| 20260507072547 | 66 | 189 | 1.0 | 3.0 | 0.00 | 0.05 | 0.00 | 72 | 1012.4 |
| 20260507072044 | 65 | 190 | 0.0 | 8.0 | 0.00 | 0.05 | 0.00 | 73 | 1012.4 |
| 20260507071547 | 65 | 171 | 1.0 | 7.0 | 0.00 | 0.05 | 0.00 | 72 | 1012.5 |
| 20260507071044 | 65 | 163 | 0.0 | 2.0 | 0.00 | 0.05 | 0.00 | 75 | 1012.5 |
| 20260507070544 | 65 | 163 | 1.0 | 5.0 | 0.00 | 0.05 | 0.00 | 75 | 1012.6 |
| 20260507070044 | 65 | 162 | 0.0 | 6.0 | 0.00 | 0.05 | 0.00 | 76 | 1012.6 |
| 20260507065544 | 64 | 138 | 1.0 | 7.0 | 0.00 | 0.05 | 0.00 | 77 | 1012.6 |
| 20260507065044 | 64 | 174 | 2.0 | 3.0 | 0.00 | 0.05 | 0.00 | 78 | 1012.7 |
| 20260507064547 | 64 | 174 | 2.0 | 8.0 | 0.00 | 0.05 | 0.00 | 77 | 1012.7 |
| 20260507064048 | 64 | 152 | 0.0 | 6.0 | 0.00 | 0.05 | 0.00 | 79 | 1012.6 |
| 20260507063544 | 63 | 158 | 2.0 | 7.0 | 0.00 | 0.05 | 0.00 | 78 | 1012.4 |
| 20260507063044 | 63 | 150 | 0.0 | 5.0 | 0.00 | 0.05 | 0.00 | 79 | 1012.3 |
| 20260507062544 | 63 | 162 | 4.0 | 6.0 | 0.00 | 0.05 | 0.00 | 80 | 1012.3 |
| 20260507062044 | 63 | 150 | 3.0 | 8.0 | 0.00 | 0.05 | 0.00 | 80 | 1012.2 |
| 20260507061544 | 62 | 136 | 0.0 | 4.0 | 0.00 | 0.05 | 0.00 | 81 | 1012.2 |
| 20260507061044 | 62 | 140 | 2.0 | 5.0 | 0.00 | 0.05 | 0.00 | 81 | 1012.1 |
| 20260507060544 | 61 | 128 | 2.0 | 4.0 | 0.00 | 0.05 | 0.00 | 82 | 1012.1 |
| 20260507060047 | 61 | 117 | 4.0 | 4.0 | 0.00 | 0.05 | 0.00 | 82 | 1012.1 |
| 20260507055544 | 61 | 140 | 2.0 | 3.0 | 0.00 | 0.04 | 0.00 | 83 | 1012.2 |
| 20260507055047 | 60 | 140 | 0.0 | 4.0 | 0.00 | 0.04 | 0.00 | 83 | 1012.1 |
| 20260507054544 | 60 | 141 | 1.0 | 5.0 | 0.00 | 0.04 | 0.00 | 82 | 1012.0 |
| 20260507054044 | 60 | 116 | 1.0 | 3.0 | 0.00 | 0.04 | 0.00 | 82 | 1012.0 |
| 20260507053544 | 60 | 115 | 1.0 | 4.0 | 0.00 | 0.04 | 0.00 | 82 | 1012.1 |
| 20260507053044 | 60 | 78 | 3.0 | 4.0 | 0.00 | 0.04 | 0.00 | 83 | 1012.1 |
| 20260507052544 | 60 | 78 | 0.0 | 3.0 | 0.00 | 0.04 | 0.00 | 84 | 1012.0 |
| 20260507052047 | 60 | 78 | 2.0 | 4.0 | 0.00 | 0.04 | 0.00 | 84 | 1012.0 |
| 20260507051544 | 60 | 77 | 2.0 | 5.0 | 0.00 | 0.04 | 0.00 | 84 | 1012.0 |
| 20260507051044 | 59 | 75 | 1.0 | 3.0 | 0.00 | 0.04 | 0.00 | 84 | 1012.0 |
| 20260507050544 | 59 | 75 | 3.0 | 4.0 | 0.00 | 0.04 | 0.00 | 84 | 1012.0 |
| 20260507050047 | 59 | 75 | 3.0 | 3.0 | 0.00 | 0.04 | 0.00 | 85 | 1012.0 |
| 20260507045544 | 59 | 74 | 2.0 | 4.0 | 0.00 | 0.04 | 0.00 | 85 | 1011.9 |
| 20260507045044 | 58 | 74 | 1.0 | 2.0 | 0.00 | 0.04 | 0.00 | 85 | 1011.9 |
| 20260507044544 | 58 | 74 | 2.0 | 3.0 | 0.00 | 0.05 | 0.00 | 85 | 1011.9 |
| 20260507044044 | 58 | 74 | 1.0 | 2.0 | 0.00 | 0.05 | 0.00 | 85 | 1011.9 |
| 20260507043544 | 58 | 74 | 1.0 | 3.0 | 0.00 | 0.05 | 0.00 | 85 | 1011.9 |
| 20260507043044 | 58 | 74 | 1.0 | 3.0 | 0.00 | 0.05 | 0.00 | 85 | 1011.8 |
| 20260507042547 | 58 | 74 | 2.0 | 3.0 | 0.00 | 0.05 | 0.00 | 85 | 1011.8 |
| 20260507042047 | 58 | 74 | 1.0 | 3.0 | 0.00 | 0.05 | 0.00 | 85 | 1011.8 |
| 20260507041544 | 58 | 74 | 3.0 | 5.0 | 0.00 | 0.05 | 0.00 | 85 | 1011.8 |
| 20260507041044 | 58 | 67 | 4.0 | 5.0 | 0.00 | 0.05 | 0.00 | 85 | 1011.7 |
| 20260507040544 | 58 | 65 | 2.0 | 3.0 | 0.00 | 0.05 | 0.00 | 85 | 1011.7 |
| 20260507040044 | 58 | 65 | 3.0 | 4.0 | 0.00 | 0.05 | 0.00 | 85 | 1011.7 |
| 20260507035544 | 59 | 65 | 1.0 | 4.0 | 0.00 | 0.05 | 0.00 | 85 | 1011.6 |
| 20260507035044 | 59 | 65 | 2.0 | 5.0 | 0.00 | 0.05 | 0.00 | 85 | 1011.7 |
| 20260507034544 | 59 | 63 | 3.0 | 4.0 | 0.00 | 0.05 | 0.00 | 84 | 1011.7 |
| 20260507034044 | 59 | 60 | 2.0 | 2.0 | 0.00 | 0.05 | 0.00 | 84 | 1011.8 |
| 20260507033544 | 59 | 60 | 2.0 | 4.0 | 0.00 | 0.05 | 0.00 | 84 | 1011.8 |
| 20260507033044 | 59 | 60 | 0.0 | 3.0 | 0.00 | 0.05 | 0.00 | 85 | 1011.9 |
| 20260507032547 | 58 | 60 | 1.0 | 4.0 | 0.00 | 0.05 | 0.00 | 85 | 1011.8 |
| 20260507032047 | 58 | 36 | 4.0 | 4.0 | 0.00 | 0.05 | 0.00 | 85 | 1011.8 |
| 20260507031544 | 58 | 346 | 2.0 | 3.0 | 0.00 | 0.05 | 0.00 | 85 | 1011.9 |
| 20260507031044 | 58 | 346 | 0.0 | 1.0 | 0.00 | 0.05 | 0.00 | 85 | 1011.9 |
| 20260507030544 | 58 | 346 | 0.0 | 2.0 | 0.00 | 0.05 | 0.00 | 86 | 1011.8 |
| 20260507030044 | 58 | 346 | 1.0 | 2.0 | 0.00 | 0.05 | 0.00 | 86 | 1011.8 |
| 20260507025544 | 58 | 346 | 1.0 | 2.0 | 0.00 | 0.05 | 0.00 | 86 | 1011.8 |
| 20260507025044 | 58 | 346 | 1.0 | 3.0 | 0.00 | 0.05 | 0.00 | 86 | 1011.8 |
| 20260507024547 | 58 | 346 | 2.0 | 3.0 | 0.00 | 0.05 | 0.00 | 86 | 1011.8 |
| 20260507024044 | 58 | 346 | 1.0 | 5.0 | 0.00 | 0.05 | 0.00 | 86 | 1011.7 |
| 20260507023544 | 58 | 345 | 4.0 | 4.0 | 0.00 | 0.05 | 0.00 | 87 | 1011.8 |
| 20260507023044 | 58 | 345 | 2.0 | 5.0 | 0.00 | 0.05 | 0.00 | 87 | 1011.8 |
| 20260507022544 | 58 | 344 | 2.0 | 4.0 | 0.00 | 0.05 | 0.00 | 87 | 1011.8 |
| 20260507022047 | 58 | 340 | 4.0 | 5.0 | 0.00 | 0.05 | 0.00 | 88 | 1011.8 |
| 20260507021545 | 58 | 331 | 3.0 | 5.0 | 0.00 | 0.05 | 0.00 | 88 | 1011.8 |
| 20260507021048 | 58 | 341 | 3.0 | 5.0 | 0.00 | 0.05 | 0.00 | 88 | 1011.8 |
| 20260507020544 | 58 | 340 | 5.0 | 5.0 | 0.00 | 0.05 | 0.00 | 88 | 1011.8 |
| 20260507020044 | 58 | 335 | 4.0 | 6.0 | 0.00 | 0.05 | 0.00 | 88 | 1011.8 |
| 20260507015544 | 58 | 332 | 3.0 | 4.0 | 0.00 | 0.05 | 0.00 | 88 | 1011.8 |
| 20260507015047 | 58 | 331 | 1.0 | 3.0 | 0.00 | 0.05 | 0.00 | 88 | 1011.8 |
| 20260507014544 | 58 | 331 | 0.0 | 3.0 | 0.00 | 0.05 | 0.00 | 88 | 1011.7 |
| 20260507014044 | 58 | 345 | 2.0 | 3.0 | 0.00 | 0.05 | 0.00 | 88 | 1011.8 |
| 20260507013547 | 58 | 104 | 1.0 | 2.0 | 0.00 | 0.05 | 0.00 | 88 | 1011.7 |
| 20260507013047 | 58 | 105 | 0.0 | 3.0 | 0.00 | 0.05 | 0.00 | 88 | 1011.7 |
| 20260507012544 | 58 | 105 | 0.0 | 2.0 | 0.00 | 0.05 | 0.00 | 89 | 1011.7 |
| 20260507012044 | 58 | 105 | 0.0 | 3.0 | 0.00 | 0.05 | 0.00 | 89 | 1011.7 |
| 20260507011544 | 57 | 105 | 1.0 | 2.0 | 0.00 | 0.05 | 0.00 | 89 | 1011.7 |
| 20260507011044 | 57 | 108 | 0.0 | 2.0 | 0.00 | 0.05 | 0.00 | 90 | 1011.6 |
| 20260507010547 | 57 | 108 | 0.0 | 3.0 | 0.00 | 0.05 | 0.00 | 90 | 1011.5 |
| 20260507010044 | 57 | 108 | 1.0 | 4.0 | 0.00 | 0.05 | 0.00 | 90 | 1011.6 |
| 20260507005544 | 57 | 108 | 3.0 | 6.0 | 0.00 | 0.05 | 0.00 | 90 | 1011.7 |
| 20260507005047 | 57 | 108 | 1.0 | 3.0 | 0.00 | 0.05 | 0.00 | 90 | 1011.7 |
| 20260507004544 | 57 | 107 | 2.0 | 4.0 | 0.00 | 0.05 | 0.00 | 91 | 1011.7 |
| 20260507004044 | 57 | 103 | 1.0 | 4.0 | 0.00 | 0.05 | 0.00 | 91 | 1011.7 |
| 20260507003547 | 57 | 91 | 2.0 | 4.0 | 0.00 | 0.05 | 0.00 | 91 | 1011.8 |
| 20260507003044 | 57 | 111 | 4.0 | 6.0 | 0.00 | 0.05 | 0.00 | 90 | 1011.8 |
| 20260507002544 | 57 | 87 | 0.0 | 6.0 | 0.00 | 0.05 | 0.00 | 91 | 1011.9 |
| 20260507002044 | 57 | 103 | 1.0 | 7.0 | 0.00 | 0.05 | 0.00 | 91 | 1011.9 |
| 20260507001544 | 57 | 88 | 3.0 | 8.0 | 0.00 | 0.05 | 0.00 | 91 | 1011.8 |
| 20260507001044 | 57 | 138 | 3.0 | 10.0 | 0.00 | 0.05 | 0.00 | 91 | 1011.8 |
| 20260507000544 | 57 | 144 | 5.0 | 7.0 | 0.00 | 0.05 | 0.00 | 91 | 1011.8 |
| 20260507000044 | 57 | 148 | 4.0 | 10.0 | 0.01 | 0.05 | 0.00 | 91 | 1011.9 |
| 20260506235544 | 57 | 81 | 7.0 | 10.0 | 0.01 | 0.05 | 0.00 | 91 | 1011.9 |
| 20260506235044 | 58 | 135 | 3.0 | 9.0 | 0.02 | 0.05 | 0.00 | 91 | 1011.9 |
| 20260506234544 | 58 | 95 | 6.0 | 10.0 | 0.02 | 0.05 | 0.00 | 91 | 1012.0 |
| 20260506234044 | 58 | 113 | 3.0 | 8.0 | 0.03 | 0.05 | 0.00 | 91 | 1012.0 |
| 20260506233544 | 58 | 133 | 5.0 | 9.0 | 0.03 | 0.05 | 0.00 | 91 | 1012.1 |
| 20260506233044 | 58 | 154 | 4.0 | 11.0 | 0.03 | 0.05 | 0.00 | 90 | 1012.2 |
| 20260506232544 | 58 | 213 | 6.0 | 12.0 | 0.03 | 0.05 | 0.00 | 90 | 1012.2 |
| 20260506232044 | 58 | 146 | 10.0 | 12.0 | 0.03 | 0.05 | 0.00 | 90 | 1012.2 |
| 20260506231544 | 58 | 140 | 9.0 | 14.0 | 0.03 | 0.04 | 0.00 | 90 | 1012.1 |
| 20260506231044 | 58 | 154 | 8.0 | 14.0 | 0.03 | 0.04 | 0.00 | 90 | 1012.1 |
| 20260506230544 | 58 | 146 | 10.0 | 14.0 | 0.03 | 0.04 | 0.00 | 90 | 1012.1 |
| 20260506230044 | 59 | 157 | 9.0 | 13.0 | 0.02 | 0.03 | 0.00 | 90 | 1012.1 |
| 20260506225544 | 59 | 160 | 8.0 | 16.0 | 0.02 | 0.03 | 0.00 | 90 | 1012.1 |
| 20260506225044 | 59 | 182 | 8.0 | 11.0 | 0.01 | 0.03 | 0.00 | 89 | 1012.1 |
| 20260506224547 | 59 | 154 | 6.0 | 14.0 | 0.01 | 0.03 | 0.00 | 88 | 1012.1 |
| 20260506224044 | 59 | 166 | 10.0 | 16.0 | 0.00 | 0.02 | 0.00 | 87 | 1012.1 |
| 20260506223544 | 59 | 176 | 9.0 | 13.0 | 0.00 | 0.02 | 0.00 | 86 | 1012.1 |
| 20260506223047 | 60 | 146 | 11.0 | 10.0 | 0.00 | 0.01 | 0.00 | 86 | 1012.1 |
| 20260506222547 | 59 | 133 | 8.0 | 11.0 | 0.00 | 0.01 | 0.00 | 86 | 1012.0 |
| 20260506222044 | 60 | 169 | 2.0 | 10.0 | 0.00 | 0.01 | 0.00 | 85 | 1011.9 |
| 20260506221547 | 60 | 161 | 7.0 | 10.0 | 0.00 | 0.01 | 0.00 | 85 | 1011.9 |
| 20260506221044 | 60 | 151 | 6.0 | 9.0 | 0.00 | 0.01 | 0.00 | 85 | 1011.9 |
| 20260506220544 | 60 | 144 | 6.0 | 11.0 | 0.00 | 0.01 | 0.00 | 84 | 1012.0 |
| 20260506220044 | 60 | 155 | 6.0 | 11.0 | 0.00 | 0.01 | 0.00 | 84 | 1011.9 |
| 20260506215544 | 60 | 161 | 5.0 | 10.0 | 0.00 | 0.01 | 0.00 | 84 | 1011.9 |
| 20260506215047 | 60 | 153 | 3.0 | 11.0 | 0.00 | 0.01 | 0.00 | 84 | 1012.0 |
| 20260506214547 | 60 | 163 | 5.0 | 10.0 | 0.00 | 0.01 | 0.00 | 85 | 1012.1 |
| 20260506214044 | 60 | 147 | 6.0 | 10.0 | 0.00 | 0.01 | 0.00 | 85 | 1012.1 |
| 20260506213547 | 60 | 142 | 6.0 | 11.0 | 0.00 | 0.01 | 0.00 | 85 | 1012.2 |
| 20260506213044 | 60 | 161 | 5.0 | 9.0 | 0.00 | 0.01 | 0.00 | 85 | 1012.3 |
| 20260506212544 | 60 | 151 | 6.0 | 9.0 | 0.00 | 0.01 | 0.00 | 85 | 1012.2 |
| 20260506212044 | 60 | 137 | 7.0 | 10.0 | 0.00 | 0.01 | 0.00 | 85 | 1012.2 |
| 20260506211544 | 60 | 155 | 8.0 | 9.0 | 0.00 | 0.01 | 0.00 | 85 | 1012.1 |
| 20260506211047 | 60 | 140 | 9.0 | 9.0 | 0.00 | 0.01 | 0.00 | 85 | 1012.2 |
| 20260506210547 | 60 | 155 | 3.0 | 9.0 | 0.00 | 0.01 | 0.00 | 86 | 1012.3 |
| 20260506210044 | 60 | 153 | 3.0 | 8.0 | 0.00 | 0.01 | 0.00 | 86 | 1012.3 |
| 20260506205547 | 60 | 155 | 6.0 | 7.0 | 0.00 | 0.01 | 0.00 | 86 | 1012.3 |
| 20260506205044 | 60 | 158 | 5.0 | 6.0 | 0.00 | 0.01 | 0.00 | 86 | 1012.2 |
| 20260506204544 | 60 | 153 | 3.0 | 7.0 | 0.00 | 0.01 | 0.00 | 86 | 1012.3 |
| 20260506204044 | 60 | 158 | 2.0 | 6.0 | 0.00 | 0.01 | 0.00 | 86 | 1012.2 |
| 20260506203544 | 60 | 145 | 6.0 | 8.0 | 0.00 | 0.01 | 0.00 | 86 | 1012.2 |
| 20260506203044 | 60 | 154 | 6.0 | 7.0 | 0.00 | 0.01 | 0.00 | 85 | 1012.2 |
| 20260506202544 | 60 | 163 | 5.0 | 8.0 | 0.00 | 0.01 | 0.00 | 85 | 1012.3 |
| 20260506202044 | 61 | 137 | 4.0 | 9.0 | 0.00 | 0.01 | 0.00 | 85 | 1012.3 |
| 20260506201544 | 60 | 167 | 4.0 | 8.0 | 0.00 | 0.01 | 0.00 | 85 | 1012.3 |
| 20260506201044 | 61 | 163 | 5.0 | 9.0 | 0.00 | 0.01 | 0.00 | 85 | 1012.3 |
| 20260506200547 | 61 | 159 | 7.0 | 7.0 | 0.00 | 0.01 | 0.00 | 85 | 1012.2 |
| 20260506200044 | 61 | 146 | 4.0 | 7.0 | 0.00 | 0.01 | 0.00 | 84 | 1012.2 |
| 20260506195544 | 61 | 138 | 4.0 | 8.0 | 0.00 | 0.01 | 0.00 | 84 | 1012.2 |
| 20260506195044 | 61 | 150 | 4.0 | 8.0 | 0.00 | 0.00 | 0.00 | 83 | 1012.2 |
| 20260506194544 | 61 | 142 | 6.0 | 9.0 | 0.00 | 0.00 | 0.00 | 82 | 1012.3 |
| 20260506194044 | 62 | 146 | 3.0 | 9.0 | 0.00 | 0.00 | 0.00 | 81 | 1012.3 |
| 20260506193547 | 62 | 145 | 4.0 | 8.0 | 0.00 | 0.00 | 0.00 | 81 | 1012.3 |
| 20260506193047 | 62 | 143 | 4.0 | 9.0 | 0.00 | 0.00 | 0.00 | 80 | 1012.2 |
| 20260506192544 | 62 | 128 | 7.0 | 10.0 | 0.00 | 0.00 | 0.00 | 80 | 1012.2 |
| 20260506192044 | 62 | 148 | 6.0 | 8.0 | 0.00 | 0.00 | 0.00 | 80 | 1012.2 |
| 20260506191547 | 62 | 140 | 7.0 | 10.0 | 0.00 | 0.00 | 0.00 | 80 | 1012.1 |
| 20260506191047 | 62 | 147 | 8.0 | 11.0 | 0.00 | 0.00 | 0.00 | 80 | 1012.0 |
| 20260506190544 | 62 | 161 | 5.0 | 11.0 | 0.00 | 0.00 | 0.00 | 79 | 1011.9 |
| 20260506190044 | 63 | 148 | 9.0 | 11.0 | 0.00 | 0.00 | 0.00 | 79 | 1011.9 |
| 20260506185544 | 63 | 157 | 3.0 | 10.0 | 0.00 | 0.00 | 0.00 | 79 | 1011.8 |
| 20260506185044 | 63 | 140 | 7.0 | 11.0 | 0.00 | 0.00 | 0.00 | 78 | 1011.7 |
| 20260506184544 | 63 | 164 | 6.0 | 9.0 | 0.00 | 0.00 | 0.00 | 77 | 1011.7 |
| 20260506184044 | 63 | 160 | 6.0 | 10.0 | 0.00 | 0.00 | 0.00 | 76 | 1011.6 |
| 20260506183544 | 63 | 165 | 5.0 | 12.0 | 0.00 | 0.00 | 0.00 | 75 | 1011.6 |
| 20260506183044 | 63 | 151 | 8.0 | 11.0 | 0.00 | 0.00 | 0.00 | 74 | 1011.6 |
| 20260506182544 | 63 | 163 | 5.0 | 10.0 | 0.00 | 0.00 | 0.00 | 74 | 1011.6 |
| 20260506182044 | 63 | 144 | 8.0 | 11.0 | 0.00 | 0.00 | 0.00 | 74 | 1011.6 |
| 20260506181544 | 63 | 174 | 6.0 | 10.0 | 0.00 | 0.00 | 0.00 | 74 | 1011.6 |
| 20260506181044 | 63 | 138 | 7.0 | 10.0 | 0.00 | 0.00 | 0.00 | 74 | 1011.6 |
| 20260506180544 | 63 | 154 | 7.0 | 12.0 | 0.00 | 0.00 | 0.00 | 75 | 1011.6 |
| 20260506180044 | 64 | 163 | 6.0 | 10.0 | 0.00 | 0.00 | 0.00 | 75 | 1011.5 |
| 20260506175544 | 64 | 139 | 7.0 | 11.0 | 0.00 | 0.00 | 0.00 | 75 | 1011.5 |
| 20260506175044 | 64 | 159 | 7.0 | 9.0 | 0.00 | 0.00 | 0.00 | 75 | 1011.5 |
| 20260506174544 | 64 | 156 | 6.0 | 10.0 | 0.00 | 0.00 | 0.00 | 74 | 1011.6 |
| 20260506174044 | 64 | 169 | 4.0 | 9.0 | 0.00 | 0.00 | 0.00 | 75 | 1011.6 |
| 20260506173544 | 64 | 155 | 7.0 | 10.0 | 0.00 | 0.00 | 0.00 | 74 | 1011.5 |
| 20260506173044 | 64 | 153 | 4.0 | 8.0 | 0.00 | 0.00 | 0.00 | 74 | 1011.5 |
| 20260506172544 | 64 | 168 | 5.0 | 9.0 | 0.00 | 0.00 | 0.00 | 74 | 1011.5 |
| 20260506172047 | 64 | 156 | 5.0 | 11.0 | 0.00 | 0.00 | 0.00 | 74 | 1011.5 |
| 20260506171544 | 64 | 185 | 4.0 | 11.0 | 0.00 | 0.00 | 0.00 | 74 | 1011.5 |
| 20260506171044 | 64 | 156 | 6.0 | 11.0 | 0.00 | 0.00 | 0.00 | 74 | 1011.5 |
| 20260506170544 | 64 | 163 | 11.0 | 13.0 | 0.00 | 0.00 | 0.00 | 74 | 1011.6 |
| 20260506170044 | 64 | 154 | 11.0 | 11.0 | 0.00 | 0.00 | 0.00 | 73 | 1011.6 |
| 20260506165547 | 64 | 187 | 6.0 | 12.0 | 0.00 | 0.00 | 0.00 | 72 | 1011.6 |
| 20260506165044 | 64 | 152 | 9.0 | 12.0 | 0.00 | 0.00 | 0.00 | 72 | 1011.7 |
| 20260506164544 | 65 | 163 | 7.0 | 12.0 | 0.00 | 0.00 | 0.00 | 72 | 1011.7 |
| 20260506164047 | 64 | 157 | 5.0 | 13.0 | 0.00 | 0.00 | 0.00 | 73 | 1011.7 |
| 20260506163547 | 65 | 162 | 6.0 | 14.0 | 0.00 | 0.00 | 0.00 | 72 | 1011.7 |
| 20260506163044 | 65 | 165 | 6.0 | 13.0 | 0.00 | 0.00 | 0.00 | 73 | 1011.7 |
| 20260506162544 | 65 | 184 | 5.0 | 12.0 | 0.00 | 0.00 | 0.00 | 73 | 1011.7 |
| 20260506162044 | 65 | 148 | 6.0 | 11.0 | 0.00 | 0.00 | 0.00 | 73 | 1011.8 |
| 20260506161544 | 65 | 160 | 7.0 | 9.0 | 0.00 | 0.00 | 0.00 | 73 | 1011.8 |
| 20260506161044 | 65 | 150 | 8.0 | 13.0 | 0.00 | 0.00 | 0.00 | 73 | 1011.7 |
| 20260506160544 | 65 | 140 | 11.0 | 13.0 | 0.00 | 0.00 | 0.00 | 72 | 1011.7 |
| 20260506160044 | 65 | 163 | 10.0 | 12.0 | 0.00 | 0.00 | 0.00 | 73 | 1011.7 |
| 20260506155544 | 65 | 150 | 6.0 | 15.0 | 0.00 | 0.00 | 0.00 | 74 | 1011.5 |
| 20260506155044 | 65 | 174 | 8.0 | 15.0 | 0.00 | 0.00 | 0.00 | 74 | 1011.6 |
| 20260506154544 | 65 | 186 | 6.0 | 11.0 | 0.00 | 0.00 | 0.00 | 74 | 1011.8 |
| 20260506154044 | 65 | 162 | 7.0 | 10.0 | 0.00 | 0.00 | 0.00 | 74 | 1011.8 |
| 20260506153547 | 65 | 159 | 6.0 | 10.0 | 0.00 | 0.00 | 0.00 | 74 | 1011.9 |
| 20260506153044 | 65 | 193 | 1.0 | 9.0 | 0.00 | 0.00 | 0.00 | 74 | 1011.8 |
| 20260506152544 | 65 | 165 | 5.0 | 12.0 | 0.00 | 0.00 | 0.00 | 73 | 1011.8 |
| 20260506152044 | 65 | 161 | 6.0 | 7.0 | 0.00 | 0.00 | 0.00 | 73 | 1011.8 |
| 20260506151547 | 65 | 157 | 5.0 | 9.0 | 0.00 | 0.00 | 0.00 | 73 | 1011.8 |
| 20260506151047 | 65 | 172 | 5.0 | 10.0 | 0.00 | 0.00 | 0.00 | 73 | 1011.7 |
| 20260506150544 | 65 | 177 | 4.0 | 11.0 | 0.00 | 0.00 | 0.00 | 73 | 1011.7 |
| 20260506150044 | 65 | 164 | 5.0 | 12.0 | 0.00 | 0.00 | 0.00 | 73 | 1011.7 |
| 20260506145544 | 65 | 157 | 9.0 | 16.0 | 0.00 | 0.00 | 0.00 | 72 | 1011.7 |
| 20260506145044 | 65 | 152 | 7.0 | 15.0 | 0.00 | 0.00 | 0.00 | 72 | 1011.8 |
| 20260506144544 | 65 | 158 | 7.0 | 11.0 | 0.00 | 0.00 | 0.00 | 73 | 1011.8 |
| 20260506144044 | 65 | 238 | 6.0 | 13.0 | 0.00 | 0.00 | 0.00 | 72 | 1011.8 |
| 20260506143544 | 65 | 150 | 12.0 | 14.0 | 0.00 | 0.00 | 0.00 | 71 | 1011.8 |
| 20260506143044 | 66 | 167 | 8.0 | 13.0 | 0.00 | 0.00 | 0.00 | 72 | 1011.7 |
| 20260506142544 | 66 | 170 | 4.0 | 16.0 | 0.00 | 0.00 | 0.00 | 72 | 1011.7 |
| 20260506142044 | 66 | 153 | 10.0 | 16.0 | 0.00 | 0.00 | 0.00 | 72 | 1011.8 |
| 20260506141547 | 66 | 157 | 11.0 | 15.0 | 0.00 | 0.00 | 0.00 | 71 | 1011.9 |
| 20260506141044 | 66 | 155 | 13.0 | 16.0 | 0.00 | 0.00 | 0.00 | 71 | 1011.8 |
| 20260506140544 | 66 | 186 | 12.0 | 15.0 | 0.00 | 0.00 | 0.00 | 71 | 1011.9 |
| 20260506140044 | 66 | 144 | 12.0 | 16.0 | 0.00 | 0.00 | 0.00 | 72 | 1011.8 |
| 20260506135544 | 66 | 153 | 12.0 | 16.0 | 0.00 | 0.00 | 0.00 | 71 | 1011.8 |
| 20260506135044 | 67 | 167 | 10.0 | 13.0 | 0.00 | 0.00 | 0.00 | 71 | 1011.9 |
| 20260506134547 | 66 | 145 | 11.0 | 15.0 | 0.00 | 0.00 | 0.00 | 70 | 1011.9 |
| 20260506134044 | 67 | 170 | 11.0 | 15.0 | 0.00 | 0.00 | 0.00 | 69 | 1012.0 |
| 20260506133544 | 67 | 166 | 5.0 | 12.0 | 0.00 | 0.00 | 0.00 | 70 | 1012.0 |
| 20260506133044 | 67 | 146 | 6.0 | 13.0 | 0.00 | 0.00 | 0.00 | 69 | 1012.1 |
| 20260506132544 | 66 | 178 | 5.0 | 15.0 | 0.00 | 0.00 | 0.00 | 68 | 1012.2 |
| 20260506132044 | 67 | 155 | 11.0 | 15.0 | 0.00 | 0.00 | 0.00 | 68 | 1012.1 |
| 20260506131544 | 66 | 144 | 11.0 | 12.0 | 0.00 | 0.00 | 0.00 | 68 | 1012.3 |
| 20260506131044 | 67 | 174 | 6.0 | 12.0 | 0.00 | 0.00 | 0.00 | 68 | 1012.3 |
| 20260506130544 | 67 | 167 | 9.0 | 14.0 | 0.00 | 0.00 | 0.00 | 68 | 1012.2 |
| 20260506130044 | 67 | 163 | 7.0 | 10.0 | 0.00 | 0.00 | 0.00 | 68 | 1012.2 |
| 20260506125544 | 67 | 164 | 4.0 | 17.0 | 0.00 | 0.00 | 0.00 | 67 | 1012.2 |
| 20260506125044 | 67 | 153 | 9.0 | 17.0 | 0.00 | 0.00 | 0.00 | 66 | 1012.1 |
| 20260506124544 | 67 | 159 | 8.0 | 15.0 | 0.00 | 0.00 | 0.00 | 66 | 1012.1 |
| 20260506124044 | 67 | 149 | 13.0 | 17.0 | 0.00 | 0.00 | 0.00 | 67 | 1012.1 |
| 20260506123544 | 67 | 187 | 5.0 | 13.0 | 0.00 | 0.00 | 0.00 | 67 | 1012.1 |
| 20260506123044 | 67 | 167 | 4.0 | 14.0 | 0.00 | 0.00 | 0.00 | 67 | 1012.1 |
| 20260506122544 | 68 | 215 | 5.0 | 16.0 | 0.00 | 0.00 | 0.00 | 67 | 1012.1 |
| 20260506122044 | 68 | 185 | 3.0 | 13.0 | 0.00 | 0.00 | 0.00 | 64 | 1012.1 |
| 20260506121544 | 68 | 190 | 3.0 | 17.0 | 0.00 | 0.00 | 0.00 | 63 | 1012.0 |
| 20260506121044 | 68 | 262 | 7.0 | 17.0 | 0.00 | 0.00 | 0.00 | 61 | 1012.0 |
| 20260506120544 | 68 | 141 | 5.0 | 22.0 | 0.00 | 0.00 | 0.00 | 65 | 1012.1 |
| 20260506120044 | 68 | 214 | 5.0 | 19.0 | 0.00 | 0.00 | 0.00 | 64 | 1012.0 |
| 20260506115544 | 68 | 198 | 8.0 | 14.0 | 0.00 | 0.00 | 0.00 | 63 | 1012.0 |
| 20260506115044 | 68 | 197 | 3.0 | 18.0 | 0.00 | 0.00 | 0.00 | 63 | 1012.1 |
| 20260506114547 | 69 | 171 | 6.0 | 19.0 | 0.00 | 0.00 | 0.00 | 61 | 1012.1 |
| 20260506114044 | 69 | 163 | 13.0 | 19.0 | 0.00 | 0.00 | 0.00 | 62 | 1012.0 |
| 20260506113544 | 68 | 178 | 9.0 | 16.0 | 0.00 | 0.00 | 0.00 | 61 | 1012.1 |
| 20260506113044 | 68 | 189 | 5.0 | 17.0 | 0.00 | 0.00 | 0.00 | 62 | 1012.0 |
| 20260506112547 | 68 | 167 | 12.0 | 17.0 | 0.00 | 0.00 | 0.00 | 63 | 1012.1 |
| 20260506112044 | 68 | 142 | 13.0 | 16.0 | 0.00 | 0.00 | 0.00 | 63 | 1012.0 |
| 20260506111544 | 68 | 163 | 11.0 | 18.0 | 0.00 | 0.00 | 0.00 | 63 | 1012.1 |
| 20260506111044 | 69 | 177 | 5.0 | 15.0 | 0.00 | 0.00 | 0.00 | 64 | 1012.1 |
| 20260506110544 | 69 | 244 | 8.0 | 15.0 | 0.00 | 0.00 | 0.00 | 63 | 1012.1 |
| 20260506110044 | 69 | 168 | 11.0 | 14.0 | 0.00 | 0.00 | 0.00 | 63 | 1012.1 |
| 20260506105544 | 69 | 151 | 11.0 | 11.0 | 0.00 | 0.00 | 0.00 | 61 | 1012.2 |
| 20260506105044 | 69 | 140 | 7.0 | 14.0 | 0.00 | 0.00 | 0.00 | 60 | 1012.2 |
| 20260506104547 | 69 | 163 | 10.0 | 18.0 | 0.00 | 0.00 | 0.00 | 59 | 1012.0 |
| 20260506104044 | 69 | 155 | 13.0 | 13.0 | 0.00 | 0.00 | 0.00 | 59 | 1012.1 |